Regional Weather Roundup
Issued by NWS

Home | Current Version | Previous Version | Text Only | Print | Product List | Glossary On
Versions: 1 2 3 4 5 6 7 8 9 10 11 12 13 14 15 16 17 18 19 20 21 22 23 24 25 26 27 28
000
ASUS45 KREV 181010
RWRNV
NEVADA REGIONAL WEATHER ROUNDUP
NATIONAL WEATHER SERVICE RENO NV
200 AM PST THU JAN 18 2018

NOTE: "FAIR" INDICATES FEW OR NO CLOUDS BELOW 12,000 FEET WITH NO
SIGNIFICANT WEATHER AND/OR OBSTRUCTIONS TO VISIBILITY.

NVZ001-003-004-181100-
WESTERN NEVADA

CITY           SKY/WX    TMP DP  RH WIND       PRES   REMARKS
RENO           PTCLDY    43  35  73 CALM      30.13R
CARSON CITY    MOCLDY    36  32  87 CALM      30.16S
SLIDE MTN        N/A     32  32 100 SW47        N/A
PYRAMID LAKE     N/A     45 N/A N/A N7          N/A
FALLON         CLOUDY    36  25  64 VRB3      30.14R
LOVELOCK       PTCLDY    30  27  88 E6        30.14R
$$

NVZ002-CAZ072-073-181100-
NORTHERN AND CENTRAL SIERRA

CITY           SKY/WX    TMP DP  RH WIND       PRES   REMARKS
S. LAKE TAHOE  CLOUDY    46  34  62 CALM      30.21S
TRUCKEE        PTCLDY    45  32  61 S3        30.19F
SQUAW VLY 8000   N/A     37  32  81 SW16        N/A
SUSANVILLE     CLOUDY    48  37  66 SE3       30.10F
BLUE CANYON    MOCLDY    46  36  68 SE8       30.22F
MAMMOTH LAKES  FAIR      32  26  80 CALM      30.31S
$$

NVZ030-031-036-181100-
NORTHERN NEVADA

CITY           SKY/WX    TMP DP  RH WIND       PRES   REMARKS
ELKO           CLOUDY    30  27  88 E7        30.21R
WINNEMUCCA     PTCLDY    35  29  78 E8        30.12F
WENDOVER       CLOUDY    26  21  81 CALM      30.26F
$$

NVZ035-037-181100-
CENTRAL NEVADA

CITY           SKY/WX    TMP DP  RH WIND       PRES   REMARKS
ELY            MOCLDY    26  22  84 S9        30.28R
EUREKA           N/A     33  27  78 SW9       30.22F
$$

NVZ013-014-181100-
SOUTH CENTRAL NEVADA

CITY           SKY/WX    TMP DP  RH WIND       PRES   REMARKS
TONOPAH        CLOUDY    36  29  75 N9        30.26S
$$

NVZ017-020-022-181100-
SOUTHERN NEVADA

CITY           SKY/WX    TMP DP  RH WIND       PRES   REMARKS
LAS VEGAS      CLOUDY    51  39  63 S5        30.19F
N. LAS VEGAS   CLOUDY    49  39  68 CALM      30.19F
NELLIS AFB     PTCLDY    46  40  80 CALM      30.22F
HENDERSON      CLOUDY    49  37  63 SW7       30.22F
MERCURY        MOCLDY    44  36  73 N5        30.21F
$$




USA.gov is the U.S. government's official web portal to all federal, state and local government web resources and services.